Погода в Балхаше

Хотите узнать прогноз погоды в Балхаше? Тогда Вам сюда: Погода в Балхаше

Поиск расширенной информации на нашем сайте:

Полезная информация:

Новости сайта



02.01.2020
Опубликован Долгосрочный прогноз погоды по городам России и ближнего зарубежья на январь 2020 года.
Карты: Прогноз на январь и февраль 2020 года, Сравнение прогнозируемой аномалии приземной температуры воздуха на январь 2020 года по разным моделям.




Погода в Балхаше - сегодня

Время (UTC), дата Ветер
(°,м/с) 
Видим.   Явления Облачность Т
(°С)
Тd
(°С)
f(%) Тe
(°С)
Pmin
(гПа)
dP
(гПа)
Po
(мм)
O2
(г/м3)
Тmin Tmax R s Состояние
почвы
12 03.03.21 180 (Ю) 20000 м    ясно 
-4.2 -5.7 89 -7  1028.7  0.1  738  303           
15 03.03.21 тихо ()   10 км    ясно 
-6.7 -8.3 88 -7  1030.2  739  306    -1.8       
18 03.03.21 070 (В) 10 км    ясно 
-8.2 -9.6 90 -8  1029.7  -0.7  738  308    -1.8       
21 03.03.21 070 (В) 10 км    ясно 
-10.3 -12.8 82 -13  1029.3  -0.8  738  310           
00 04.03.21 070 (В) 10 км    ясно 
-11 -13.2 84 -14  1028  -1.3  737  311           
03 04.03.21 070 (В) 20000 м    ясно 
-11 -13.3 83 -15  1027.7  -0.3  737  310        мокрый или
старый снег
10-40% 
06 04.03.21 060 (СВ) 20000 м    9/0 средняя, верхняя 
[Ac trans|Ci fib]
-4.9 -7.3 83 -9  1024.4  -2.2  735  302  -11.2         
09 04.03.21 080 (В) 20000 м    10/10 1000 м 
[Sc]
-1.9 -4.3 84 -6  1020.4  -3.3  733  298           
12 04.03.21 070 (В) 20000 м    10/10 1000 м 
[Sc]
-0.9 -3.1 85 -3  1019.1  -1.1  732  296           
15 04.03.21 110 (В) 10 км    10/0 средняя 
[As op]
-1.2 -2.2 93 -4  1018.2  -0.9  731  296    -0.4       
18 04.03.21 130 (ЮВ) 10 км  слаб. переохл. дождь (гололёд) [диам. гололёда 0 мм]  10/10 1000 м 
[Ns]
-0.3 -0.3 100 -2  1017.3  -0.7  731  295    -0.4       
21 04.03.21 300 (СЗ) 10 км  слаб. снег{дождь} [диам. сложн. отлож. 2 мм]  10/10 1000 м 
[Ns]
+0.3 -0.5 94 -1  1019  1.7  732  295           
00 05.03.21 270 (З) 10 км  {снег, дождь}  1/0 средняя 
[Ac trans]
-0.7 -2.8 86 -4  1023.3  3.9  735  297           
03 05.03.21 270 (З) 20000 м    ясно 
-3.7 -5.5 87 -7  1029.3  5.3  739  302        мокрый или
старый снег
50-90% 
06 05.03.21 250 (З) 20000 м    1/1 600 м 
[St]
-1.8 -7.5 65 -5  1033.2  742  302  -4.3       
09 05.03.21 230 (ЮЗ) 20000 м    1/1 600 м 
[St]
-0.8 -7.6 60 -3  1033.2  0.2  742  301           
12 05.03.21 160 (Ю) 20000 м    1/1 1000 м 
[Sc]
-2.3 -4.8 83 -3  1033.2  -0.2  742  302           
15 05.03.21 020 (С) 10 км    ясно 
-4.3 -6.6 84 -4  1032.8  -0.7  741  304    +0.2       
18 05.03.21 050 (СВ) 10 км    ясно 
-6.5 -8.9 83 -9  1031.9  -1.2  740  306    +0.2       
21 05.03.21 050 (СВ) 10 км    ясно 
-7.3 -9.4 85 -10  1030.4  -1.7  739  307           
00 06.03.21 050 (СВ) 10 км    ясно 
-7.9 -10.1 84 -11  1028.5  -1.8  738  307           
03 06.03.21 050 (СВ) 20000 м    5/1 1000 м верхняя 
[Sc|Ci fib]
-8.4 -10.7 83 -12  1027.2  -1.4  737  307        мокрый или
старый снег
10-40% 
06 06.03.21 070 (В) 20000 м    4/0 верхняя 
[Cs]
-1.9 -4.3 84 -5  1023.8  -2.2  735  299  -9.4         
09 06.03.21 070 (В) 20000 м    1/0 верхняя 
[Cs]
+1.6 -2.4 75 -1  1020.4  -2.6  733  294           
12 06.03.21 070 (В) 20000 м    8/0 средняя, верхняя 
[Ac trans|Cs]
+2.1 -2.5 72 +1  1019.7  -0.6  733  293           
Время (UTC), дата Ветер
(°,м/с) 
Видим.   Явления Облачность Т
(°С)
Тd
(°С)
f(%) Тe
(°С)
Pmin
(гПа)
dP
(гПа)
Po
(мм)
O2
(г/м3)
Тmin Tmax R s Состояние
почвы

Для получения пояснительной информации подведите курсор к названию столбца.

ПОГОДА в Балхаше - архив

Всё, что Вы хотите узнать о погоде в Балхаше - удобно и подробно!

Выберите нужную дату (начиная с 1 января 2019* года) и нажмите кнопку "Найти".
Будут отображены архивные сводки погоды по пункту Балхаш, начиная с указанной даты.


Отображать данные в формате CSV (для использования в таблицах Excel)


Внимание! Наш архив погоды предназначен исключительно для личного некоммерческого использования в познавательных целях. Если Вам необходимы официальные справки о состоянии погоды (для производственных, юридических, коммерческих и т.п. целей), обращайтесь в органы Росгидромета.

*Примечание: данная дата относится к архиву по метеостанциям СССР (Россия, СНГ, Балтия).
Архив по метеостанциям Зарубежной Европы и Азии (кроме Китая) хранится 10 дней, по другим регионам земного шара (Китай, Африка, Америка, Австралия, Океания) - 1 день.

Балхаш - район местоположения метеостанции


Название, широта, долгота, высота метеостанции:
Балхаш 46.8°ш. 75.1°д. 350 м над ур. моря [Казахстан]

Дополнительная информация

В oтличие oт бoльшинства пoгoдных сайтoв мы публикуем пoдрoбную метеoинфoрмацию в детальнoм прoфессиoнальнoм фoрмате.

Характеристики температуры и влажнoсти вoздуха измеряются на высoте 2 м в тени вдали oт зданий и деревьев.
Скoрoсть ветра измеряется на высoте 10 м (на урoвне рoста челoвека скoрoсть ветра ниже в 1.5-2 раза). Если метеoстанция нахoдится в гoрoде или в лесу, тo скoрoсть ветра занижена на 2-4 м/с пo сравнению с oткрытым местoм. Скoрoсть ветра над акватoриями крупных рек и oзёр, а также на вершинах хoлмoв на 2-5 м/с выше, чем в oбычных услoвиях.
Атмoсфернoе давление в разных тoчках местнoсти мoжет значительнo oтличаться oт давления на метеoстанции, в зависимoсти oт услoвий рельефа (при пoдъёме на 10 м давление пoнижается примернo на 1 мм рт.ст.).